Kelso, MO

1:26 PM CST on February 26, 2017 (GMT -0600)
Cape Girardeau Regional

Weather History for KCGI - October, 2012

Change the Weather History Date:

Wednesday, October 10, 2012

  Actual Average Record
Temperature  
Mean Temperature 48 °F 60 °F  
Max Temperature 59 °F 72 °F 88 °F (1980)
Min Temperature 37 °F 47 °F 26 °F (2000)
Degree Days  
Heating Degree Days 17 7  
Month to date heating degree days 109 58  
Since 1 July heating degree days 155 107  
Cooling Degree Days 0 1  
Month to date cooling degree days 2 17  
Year to date cooling degree days 1766 1439  
Moisture  
Dew Point 37 °F    
Average Humidity 58    
Maximum Humidity 85    
Minimum Humidity 31    
Precipitation  
Precipitation 0.00 in 0.11 in 0.82 in (2014)
Month to date precipitation 0.24 1.16  
Year to date precipitation 21.62 35.49  
Sea Level Pressure  
Sea Level Pressure 30.19 in    
Wind  
Wind Speed 8 mph (North)    
Max Wind Speed 20 mph    
Max Gust Speed 25 mph    
Visibility 10 miles    
Events      
T = Trace of Precipitation, MM = Missing Value Source: NWS Daily Summary

Daily Weather History Graph

Daily Weather History Graph

Search for Another Location

Airport or City:

Trip Planner

Search our weather history database for the weather conditions in past years. The results will help you decide how hot, cold, wet, or windy it might be!

Date:

Astronomy

Oct. 10, 2012 Rise Set
Actual Time 7:02 AM CDT 6:27 PM CDT
Civil Twilight 6:35 AM CDT 6:53 PM CDT
Nautical Twilight 6:05 AM CDT 7:23 PM CDT
Astronomical Twilight 5:35 AM CDT 7:53 PM CDT
Moon 1:44 AM CDT (10/10) 3:24 PM CDT (10/10)
Length of Visible Light 12h 17m
Length of Day
11h 25m
Waning Crescent, 27% of the Moon is Illuminated
Oct 10
Waning Crescent
Oct 15
New
Oct 21
First Quarter
Oct 29
Full
Nov 6
Last Quarter

Hourly Weather History & Observations

Time (CDT) Temp. Windchill Dew Point Humidity Pressure Visibility Wind Dir Wind Speed Gust Speed Precip Events Conditions
12:53 AM 55.0 °F - 48.0 °F 77% 30.01 in 10.0 mi WNW 3.5 mph - N/A   Overcast
1:53 AM 55.0 °F - 50.0 °F 83% 30.02 in 10.0 mi Calm Calm - N/A   Overcast
2:53 AM 55.0 °F - 50.0 °F 83% 30.02 in 10.0 mi WNW 3.5 mph - N/A   Overcast
3:53 AM 55.0 °F - 46.9 °F 74% 30.06 in 10.0 mi NNW 11.5 mph 23.0 mph N/A   Overcast
4:11 AM 53.6 °F - 46.4 °F 77% 30.07 in 10.0 mi NNW 9.2 mph - N/A   Overcast
4:53 AM 52.0 °F - 43.0 °F 71% 30.10 in 10.0 mi NNW 11.5 mph - N/A   Overcast
5:53 AM 51.1 °F - 39.9 °F 66% 30.15 in 10.0 mi NNW 12.7 mph - N/A   Overcast
6:53 AM 50.0 °F - 39.0 °F 66% 30.17 in 10.0 mi North 8.1 mph 18.4 mph N/A   Overcast
7:53 AM 48.9 °F - 39.0 °F 69% 30.20 in 10.0 mi NNW 10.4 mph - N/A   Clear
8:53 AM 50.0 °F - 39.9 °F 68% 30.23 in 10.0 mi North 11.5 mph - N/A   Clear
9:53 AM 53.1 °F - 36.0 °F 52% 30.25 in 10.0 mi North 13.8 mph - N/A   Clear
10:53 AM 54.0 °F - 33.1 °F 45% 30.27 in 10.0 mi NW 15.0 mph 21.9 mph N/A   Clear
11:53 AM 55.9 °F - 32.0 °F 40% 30.28 in 10.0 mi NNW 13.8 mph - N/A   Clear
12:53 PM 57.9 °F - 28.9 °F 33% 30.27 in 10.0 mi NNW 13.8 mph 21.9 mph N/A   Clear
1:53 PM 57.9 °F - 28.0 °F 32% 30.25 in 10.0 mi NNE 12.7 mph - N/A   Clear
2:53 PM 59.0 °F - 28.0 °F 31% 30.23 in 10.0 mi North 10.4 mph - N/A   Clear
3:53 PM 59.0 °F - 28.0 °F 31% 30.23 in 10.0 mi North 11.5 mph - N/A   Clear
4:53 PM 57.9 °F - 28.0 °F 32% 30.23 in 10.0 mi NNW 6.9 mph - N/A   Clear
5:53 PM 57.0 °F - 28.0 °F 33% 30.23 in 10.0 mi North 4.6 mph - N/A   Clear
6:53 PM 48.9 °F - 30.0 °F 48% 30.24 in 10.0 mi ENE 3.5 mph - N/A   Clear
7:53 PM 42.1 °F - 35.1 °F 76% 30.25 in 10.0 mi Calm Calm - N/A   Clear
8:53 PM 43.0 °F 41.3 °F 36.0 °F 76% 30.25 in 10.0 mi East 3.5 mph - N/A   Clear
9:53 PM 42.1 °F 40.2 °F 35.1 °F 76% 30.26 in 10.0 mi ESE 3.5 mph - N/A   Clear
10:53 PM 42.1 °F - 36.0 °F 79% 30.26 in 10.0 mi Calm Calm - N/A   Clear
11:53 PM 39.9 °F - 36.0 °F 86% 30.26 in 10.0 mi Calm Calm - N/A   Clear